Augusta, GA

1:05 AM EDT on September 22, 2017 (GMT -0400)
Daniel

Weather History for KDNL - February, 2013

Change the Weather History Date:

Friday, February 15, 2013

  Actual Average Record
Temperature  
Mean Temperature 50 °F -  
Max Temperature 64 °F 58 °F 75 °F (2003)
Min Temperature 35 °F 40 °F 30 °F (1999)
Degree Days  
Heating Degree Days 15    
Month to date heating degree days 216  
Moisture  
Dew Point 34 °F    
Average Humidity 61    
Maximum Humidity 92    
Minimum Humidity 27    
Precipitation  
Precipitation 0.00 in - - ()
Month to date precipitation 5.41  
Year to date precipitation 6.47  
Sea Level Pressure  
Sea Level Pressure 30.04 in    
Wind  
Wind Speed 1 mph (NNW)    
Max Wind Speed 8 mph    
Max Gust Speed 12 mph    
Visibility 9 miles    
Events      
Averages and records for this station are not official NWS values.
T = Trace of Precipitation, MM = Missing Value Source: NWS Daily Summary

Daily Weather History Graph

Daily Weather History Graph

Search for Another Location

Airport or City:

Trip Planner

Search our weather history database for the weather conditions in past years. The results will help you decide how hot, cold, wet, or windy it might be!

Date:

Astronomy

Feb. 15, 2013 Rise Set
Actual Time 7:11 AM EST 6:13 PM EST
Civil Twilight 6:46 AM EST 6:38 PM EST
Nautical Twilight 6:17 AM EST 7:07 PM EST
Astronomical Twilight 5:48 AM EST 7:36 PM EST
Moon 10:06 AM EST (2/15) 11:51 PM EST (2/15)
Length of Visible Light 11h 51m
Length of Day
11h 01m
Waxing Crescent, 30% of the Moon is Illuminated
Feb 15
Waxing Crescent
Feb 17
First Quarter
Feb 25
Full
Mar 4
Last Quarter
Mar 11
New

Hourly Weather History & Observations

Time (EST) Temp. Windchill Dew Point Humidity Pressure Visibility Wind Dir Wind Speed Gust Speed Precip Events Conditions
12:53 AM 41.0 °F 39.0 °F 36.0 °F 82% 30.07 in 10.0 mi North 3.5 mph - N/A   Clear
1:53 AM 39.0 °F 35.7 °F 36.0 °F 89% 30.07 in 10.0 mi SE 4.6 mph - N/A   Clear
2:53 AM 37.9 °F - 36.0 °F 93% 30.07 in 7.0 mi Calm Calm - N/A   Clear
3:53 AM 37.9 °F - 36.0 °F 93% 30.05 in 7.0 mi Calm Calm - N/A   Clear
4:53 AM 37.9 °F - 35.1 °F 89% 30.07 in 10.0 mi Calm Calm - N/A   Clear
5:53 AM 36.0 °F - 34.0 °F 93% 30.09 in 5.0 mi Calm Calm - N/A   Clear
6:53 AM 36.0 °F - 33.1 °F 89% 30.11 in 6.0 mi Calm Calm - N/A   Clear
7:53 AM 37.0 °F - 35.1 °F 93% 30.12 in 6.0 mi Calm Calm - N/A   Clear
8:53 AM 41.0 °F - 37.9 °F 89% 30.12 in 10.0 mi Calm Calm - N/A   Clear
9:53 AM 46.9 °F - 39.0 °F 74% 30.12 in 10.0 mi Calm Calm - N/A   Clear
10:53 AM 52.0 °F - 39.0 °F 61% 30.12 in 10.0 mi Calm Calm - N/A   Clear
11:53 AM 55.0 °F - 36.0 °F 49% 30.11 in 10.0 mi Calm Calm - N/A   Clear
12:53 PM 57.9 °F - 30.9 °F 36% 30.08 in 10.0 mi Variable 4.6 mph - N/A   Clear
1:53 PM 60.1 °F - 30.9 °F 33% 30.04 in 10.0 mi Calm Calm - N/A   Clear
2:53 PM 61.0 °F - 30.9 °F 32% 30.00 in 10.0 mi ENE 3.5 mph - N/A   Clear
3:53 PM 63.0 °F - 28.9 °F 28% 29.99 in 10.0 mi West 3.5 mph - N/A   Clear
4:53 PM 63.0 °F - 28.0 °F 27% 29.98 in 10.0 mi NW 5.8 mph - N/A   Clear
5:53 PM 61.0 °F - 28.9 °F 30% 29.98 in 10.0 mi Calm Calm - N/A   Clear
6:53 PM 55.9 °F - 33.1 °F 42% 29.99 in 10.0 mi Calm Calm - N/A   Clear
7:53 PM 55.9 °F - 30.9 °F 39% 29.99 in 10.0 mi Calm Calm - N/A   Clear
8:53 PM 53.1 °F - 32.0 °F 45% 29.98 in 10.0 mi Calm Calm - N/A   Clear
9:53 PM 52.0 °F - 32.0 °F 47% 29.98 in 10.0 mi Calm Calm - N/A   Clear
10:53 PM 51.1 °F - 33.1 °F 50% 29.97 in 10.0 mi Calm Calm - N/A   Clear
11:53 PM 48.0 °F - 35.1 °F 61% 29.97 in 10.0 mi WNW 3.5 mph - N/A   Clear